Temperature
17 17 17 17 20 21 21 21 20 20 20 18 18 19 20 20 20 19 15 15 15 15 15 15 15 15 15 15 15 15 15 15 15 15 15 15 15 15 15 15 15 15 15 15 15 15 15 15 15
16 17 17 18 21 21 21 21 20 20 18 16 16 17 18 18 16 15 14 15 15 15 15 15 15 15 15 15 15 15 15 15 15 15 15 15 15 15 15 15 15 15 15 15 15 15 15 15 15
16 17 17 20 20 21 21 20 19 18 16 16 17 17 17 16 14 14 14 14 14 14 14 15 15 15 15 15 15 15 15 15 15 15 15 15 15 15 15 15 15 15 15 15 15 15 15 15 15
16 16 18 20 19 19 20 19 18 17 16 16 17 17 15 13 13 13 14 14 14 14 14 14 14 14 14 14 14 15 15 15 15 15 15 15 15 15 15 15 15 15 15 15 15 15 15 15 15
16 18 19 19 19 19 18 17 17 18 18 16 16 17 15 13 13 14 14 14 14 14 14 14 14 14 14 14 14 14 14 14 14 15 15 15 15 15 15 15 15 15 15 15 15 15 14 14 15
16 18 19 19 19 18 17 16 16 17 17 16 16 17 15 13 13 13 13 13 13 13 14 14 14 14 14 14 14 14 14 14 14 14 14 14 15 15 15 15 15 14 14 14 14 14 14 14 14
17 18 19 19 18 18 17 15 16 17 17 16 15 16 14 13 13 13 13 13 13 13 13 13 13 14 14 14 14 14 14 14 14 14 14 14 14 14 15 14 14 14 14 14 14 14 14 14 14
15 18 18 18 18 18 16 15 14 15 16 14 14 16 15 12 12 12 12 12 12 12 13 13 13 13 13 13 13 14 13 13 14 14 14 14 14 14 14 14 14 14 14 14 14 14 14 14 14
14 17 17 17 17 17 15 15 14 13 13 13 12 13 12 12 12 12 12 12 12 12 12 12 13 13 13 13 13 13 13 13 13 13 13 13 13 13 14 14 14 14 14 14 14 13 13 13 13
15 16 17 16 16 16 14 14 14 14 14 13 12 12 12 12 12 12 12 12 12 12 12 12 12 12 13 13 13 13 13 13 13 13 13 13 13 13 13 13 13 13 13 13 13 13 13 13 13
14 15 15 14 13 14 14 14 13 14 15 14 13 12 11 11 11 11 11 11 11 11 11 11 12 12 12 12 13 13 12 12 12 12 12 13 13 13 13 13 13 13 13 13 13 13 12 12 12
13 13 13 13 12 12 13 13 13 13 13 12 11 11 11 11 11 11 11 11 11 11 11 11 11 12 12 12 12 12 12 12 12 12 12 12 12 12 12 12 12 12 12 12 12 12 12 12 12
13 12 11 11 11 11 11 12 12 12 11 11 11 11 11 11 11 11 11 10 11 11 11 11 11 11 11 12 12 12 12 12 12 12 12 12 12 12 12 12 12 12 12 12 12 12 12 12 11
12 11 11 11 11 11 12 12 11 11 10 10 10 10 10 10 10 10 10 10 10 10 11 11 11 11 11 11 11 11 11 12 11 12 12 12 12 12 12 12 11 12 12 12 11 11 11 11 11
11 12 12 11 11 11 11 12 12 10 10 10 10 9 9 9 9 9 10 10 10 10 10 10 10 11 11 11 11 11 11 11 11 11 11 11 11 11 11 11 11 11 11 11 11 11 11 11 11
12 12 13 12 11 11 12 13 12 10 10 10 10 9 9 8 8 9 9 9 10 10 10 10 10 10 10 10 10 11 11 11 11 11 11 11 11 11 11 11 11 11 11 11 11 11 10 10 10
12 13 13 12 11 11 12 13 12 9 9 10 9 9 8 8 8 8 8 9 9 9 10 10 10 10 10 10 10 10 10 10 10 11 11 11 11 11 10 10 10 10 10 10 10 10 10 10 10
13 13 12 12 11 11 11 12 11 10 9 10 10 9 8 8 8 7 8 8 9 9 9 9 9 10 9 9 10 10 10 10 10 10 10 10 10 10 10 10 10 10 10 10 10 10 10 10 10
12 12 12 12 10 11 11 11 11 10 10 10 9 9 8 8 7 7 7 8 8 8 9 9 9 9 9 9 9 9 9 9 9 10 10 10 10 10 10 10 9 9 9 9 9 9 9 9 9
10 11 11 11 10 10 11 11 11 10 9 9 9 8 8 7 7 7 7 7 8 8 8 8 8 9 9 9 9 9 9 9 9 9 9 9 9 9 9 9 9 9 9 9 9 9 9 9 8
10 10 10 10 9 9 10 11 11 10 9 8 7 7 7 7 7 6 6 7 7 7 8 8 8 8 8 8 8 8 8 8 8 9 9 9 9 9 9 9 9 9 9 8 8 8 8 8 8
10 9 9 9 9 10 10 11 12 10 9 9 8 7 7 6 6 6 6 6 7 7 7 7 8 8 8 8 8 8 8 8 8 8 8 8 8 8 8 8 8 8 8 8 8 8 8 7 7
9 8 8 8 9 9 10 10 12 10 9 9 8 7 6 6 5 5 5 6 6 7 7 7 7 7 7 7 7 7 7 7 7 7 8 7 7 8 8 8 8 8 7 7 7 7 7 7 7
7 8 8 8 8 9 10 10 12 11 10 9 8 7 6 5 5 5 5 5 6 6 6 6 7 7 7 7 7 7 7 7 7 7 7 7 7 7 7 7 7 7 7 7 7 7 7 7 6
7 8 9 9 9 10 9 9 11 10 9 8 8 7 5 5 4 4 5 5 5 5 6 6 6 6 6 6 6 6 6 6 6 6 6 6 6 6 6 6 6 6 7 7 6 6 6 6 6
8 9 9 10 10 10 8 9 10 8 7 6 6 5 5 4 4 4 4 4 4 5 5 5 5 5 6 6 6 6 6 6 6 6 6 6 6 6 6 6 6 6 6 6 6 6 6 6 5
7 8 8 8 7 8 10 9 9 7 7 6 6 5 5 4 3 3 4 4 4 4 4 4 5 5 5 5 5 5 5 5 5 5 5 5 5 5 5 5 5 5 5 6 5 5 5 5 5
7 7 7 7 8 9 10 10 10 8 7 7 6 5 4 4 3 3 3 4 4 4 4 4 4 4 4 4 4 4 4 4 4 4 4 4 5 5 5 5 5 5 5 5 5 5 5 5 4
6 6 6 7 7 9 10 11 9 8 7 7 6 5 4 4 3 3 3 3 3 4 3 3 3 3 3 4 4 3 4 4 4 4 4 4 4 4 4 4 4 4 4 4 4 4 4 4 4
5 6 6 7 6 7 9 10 7 7 6 6 5 4 3 3 3 3 3 3 3 3 3 3 3 3 3 3 3 3 3 3 3 3 3 3 3 3 4 4 4 4 4 4 3 3 3 3 3
Wind_Speed
5 2 1 2 4 4 7 4 3 4 3 1 2 2 2 2 1 1 3 2 2 3 4 5 3 4 4 5 6 7 7 7 8 8 8 9 10 10 10 11 11 11 11 12 12 12 12 13 13
3 1 2 3 5 7 6 5 6 4 3 3 2 2 2 1 2 3 2 2 1 3 4 4 4 4 4 5 6 7 7 7 7 8 8 9 10 10 10 10 10 10 11 11 11 12 12 12 12
1 1 2 3 5 8 5 3 4 3 3 3 2 1 0 1 2 2 2 1 2 3 3 4 5 4 4 5 5 6 6 7 7 8 8 9 9 9 9 10 10 10 10 11 11 11 12 11 11
2 2 2 5 8 6 3 3 4 5 4 2 3 3 2 2 2 2 2 2 3 3 3 5 5 4 5 5 5 5 6 6 7 8 8 8 9 8 9 9 9 10 10 10 11 11 11 11 10
2 3 5 7 9 5 3 2 4 4 4 3 3 2 2 2 2 2 3 3 3 3 3 5 4 5 5 5 5 5 5 6 7 8 7 8 8 8 8 9 9 9 10 10 10 10 10 10 10
3 4 7 10 10 6 4 4 4 5 4 3 3 3 2 3 3 3 3 3 3 3 3 4 4 4 4 4 4 4 4 5 6 7 7 8 8 7 8 8 8 8 9 9 9 10 10 10 9
4 5 8 9 8 7 4 4 5 5 5 3 2 3 3 3 2 2 3 3 3 3 3 3 4 4 4 4 4 4 4 4 6 7 8 8 8 7 7 8 8 8 8 8 9 9 9 9 8
2 4 6 8 9 7 4 3 2 4 3 1 2 3 2 2 2 2 3 3 2 2 2 2 2 3 4 4 4 4 4 4 6 7 7 8 8 7 7 8 8 8 8 8 8 9 9 8 8
3 6 9 9 7 5 5 4 2 1 2 2 1 1 1 2 3 3 3 2 1 1 1 1 1 1 2 3 3 4 4 4 6 7 7 7 6 6 6 7 8 8 8 8 8 9 9 8 7
4 8 8 4 4 4 6 4 3 3 4 3 2 1 2 4 4 4 4 3 2 1 1 0 1 1 1 2 3 3 3 4 4 5 6 6 5 5 5 8 8 8 8 8 8 8 8 6 5
4 5 4 3 3 3 4 4 3 5 5 4 4 3 3 4 4 4 4 3 2 2 1 1 1 1 1 1 2 2 2 3 3 4 5 5 5 5 4 5 6 7 7 6 7 6 4 4 3
4 3 2 2 2 3 3 3 3 5 4 2 2 3 4 5 4 4 3 2 1 1 2 2 2 1 1 1 1 2 2 2 2 3 4 4 3 3 4 3 4 5 4 4 4 3 3 3 4
5 3 2 2 2 2 3 4 4 5 3 2 1 3 4 4 3 2 1 1 0 1 2 2 2 1 1 1 1 1 2 3 3 3 4 4 3 4 3 3 3 4 4 4 3 3 3 3 3
3 3 2 1 2 3 4 5 4 5 2 2 2 3 3 3 3 1 1 0 1 1 2 2 2 1 1 1 1 1 2 3 3 3 3 4 4 4 3 3 3 3 4 3 3 3 3 3 3
3 3 3 3 3 3 4 6 7 5 4 4 3 2 2 2 2 2 1 1 2 2 2 2 1 1 1 1 1 1 2 2 3 3 4 4 3 4 4 3 3 3 4 4 4 4 3 2 3
3 4 5 3 3 3 6 9 4 2 4 5 4 3 3 2 2 2 2 2 2 1 1 1 1 1 0 1 1 1 2 2 2 3 3 4 4 4 4 3 3 3 3 3 3 3 3 3 3
5 6 7 4 4 4 7 7 3 3 5 5 5 4 4 3 2 2 1 1 1 1 0 0 1 1 0 1 1 1 2 2 2 2 3 3 4 4 4 3 3 4 3 3 3 3 3 3 3
6 6 6 6 3 5 7 8 5 5 6 6 5 5 5 4 3 2 1 1 1 0 0 0 1 1 1 1 1 1 2 1 1 2 2 3 3 4 4 3 3 4 3 3 3 3 3 2 2
4 5 7 5 2 5 9 10 8 6 7 7 7 6 6 4 2 1 1 1 1 0 0 1 1 1 1 1 1 1 1 1 1 2 2 2 2 3 4 3 3 3 3 3 3 3 3 2 2
6 7 7 4 2 4 8 10 9 8 7 7 7 7 6 4 3 1 1 1 1 1 1 1 1 1 1 1 1 1 1 1 1 2 2 2 2 3 2 3 3 3 3 3 3 3 2 1 2
8 9 8 6 3 4 6 8 7 6 5 5 5 5 5 4 4 3 2 2 1 1 1 1 1 1 1 1 1 1 1 1 1 1 1 1 1 3 3 2 2 2 3 3 3 3 3 2 2
7 6 7 6 5 4 4 7 7 6 6 5 5 4 4 3 3 3 2 1 1 1 1 1 1 1 1 2 2 2 1 1 1 0 0 1 1 1 2 2 2 2 2 3 3 3 3 3 3
3 2 4 6 6 6 6 7 6 4 7 7 5 5 4 3 2 1 1 1 1 1 1 2 1 1 1 2 2 2 2 1 0 0 1 0 1 1 1 1 1 2 2 3 3 3 3 3 3
4 3 2 3 4 7 8 8 7 5 7 5 5 4 3 2 1 1 0 0 0 0 1 1 1 1 1 2 2 2 2 2 2 1 0 0 0 1 0 1 0 1 2 2 3 3 3 3 4
5 5 3 4 5 7 4 7 7 3 4 5 5 4 3 2 1 1 1 1 1 0 0 1 1 1 1 2 2 2 2 2 2 1 1 1 0 0 0 0 1 1 2 1 2 2 2 4 4
8 7 6 5 6 4 4 7 4 1 1 2 3 3 3 2 2 1 1 1 1 0 0 1 1 2 2 2 2 2 1 1 1 1 1 1 1 0 1 1 1 1 1 2 2 2 2 2 4
6 7 4 3 4 5 6 5 5 2 3 3 4 3 2 2 1 1 1 1 1 1 0 1 1 1 2 2 2 2 2 1 1 1 1 0 0 0 1 1 1 1 2 2 2 2 3 3 3
3 4 4 5 5 6 7 8 5 5 5 5 5 4 3 2 1 1 0 1 1 1 1 0 1 1 1 1 1 1 1 1 0 0 0 0 0 0 1 1 1 2 2 3 3 2 3 3 3
5 5 5 4 4 5 6 5 1 5 5 6 6 4 3 3 2 1 0 0 0 0 0 0 1 1 1 1 1 1 1 0 1 0 0 0 0 0 1 1 1 2 2 3 3 3 3 4 4
5 7 8 6 6 5 6 6 2 2 3 5 5 4 3 3 2 2 1 1 1 0 0 0 0 1 1 1 1 1 1 0 0 0 0 1 1 1 1 2 2 2 3 3 4 4 4 4 5
Wind_Direction
325 315 236 223 209 218 226 205 194 166 165 140 144 195 196 205 255 64 66 96 91 134 144 147 133 125 121 117 114 117 114 114 117 112 108 112 113 114 116 114 111 109 107 104 102 100 98 96 94
319 254 206 221 229 224 218 203 199 190 132 130 152 187 188 169 25 54 83 74 125 137 143 144 127 124 119 121 118 121 120 120 123 118 114 112 115 112 114 115 113 111 109 107 107 104 102 99 97
233 255 208 207 226 232 217 181 185 154 149 171 164 188 234 114 83 72 58 116 137 134 138 129 126 124 118 120 119 116 124 128 127 124 119 115 112 116 112 116 118 118 114 111 111 109 105 103 101
200 177 200 221 222 232 234 156 151 155 164 186 189 154 130 46 26 38 81 131 135 130 135 133 131 128 124 121 120 121 122 135 133 127 120 118 112 114 113 114 120 121 119 116 114 111 108 105 103
201 200 203 221 227 219 226 205 182 190 178 174 195 178 144 94 50 71 120 135 137 134 136 139 135 133 128 124 125 125 129 132 137 133 125 120 114 110 116 115 116 121 121 120 118 115 113 111 106
183 207 221 226 221 213 212 212 215 219 205 189 199 186 150 104 89 88 119 135 129 132 139 144 138 133 133 128 124 124 128 131 139 141 132 125 119 112 121 121 123 122 124 124 123 119 118 115 112
205 208 231 231 222 218 208 200 219 220 212 206 204 183 152 142 97 109 124 128 118 122 131 141 158 151 139 130 124 122 125 132 140 143 132 124 120 114 123 128 129 127 126 129 128 124 121 117 116
219 205 224 222 223 219 176 172 208 228 215 138 214 207 170 138 120 128 121 117 109 113 116 118 149 164 168 160 138 134 127 134 144 139 134 129 131 125 127 134 132 131 128 130 132 128 124 122 119
209 218 225 218 218 205 169 179 161 199 183 185 214 298 19 127 152 149 141 128 112 102 106 102 119 165 176 174 165 161 149 146 152 149 141 143 150 147 141 133 130 131 131 130 132 128 124 126 125
206 224 229 224 216 194 179 188 182 188 204 207 198 175 142 167 177 177 180 182 189 206 250 185 180 156 167 172 174 182 179 169 170 166 164 163 155 150 141 134 133 133 133 133 130 128 131 138 138
201 223 210 194 186 184 191 199 199 214 232 235 229 200 174 179 191 195 198 199 208 224 251 268 246 195 157 161 172 176 173 173 174 173 173 163 151 148 146 146 147 146 145 142 136 141 140 143 141
188 204 203 181 174 186 198 204 215 237 265 297 262 211 188 191 198 204 210 220 230 255 269 286 280 239 193 175 172 182 170 170 168 173 173 161 152 155 157 152 153 152 149 146 150 149 145 148 151
201 189 190 189 175 203 215 232 247 254 271 282 223 193 192 192 195 198 199 188 219 300 300 300 303 272 239 201 180 185 176 173 173 167 179 172 165 164 157 153 154 151 148 157 160 155 158 157 154
173 175 187 206 216 227 225 247 244 249 245 230 217 210 199 195 204 212 224 254 292 291 310 316 308 302 270 208 201 191 185 172 174 164 166 173 171 163 161 157 155 159 160 167 173 170 175 172 167
156 175 213 227 224 215 218 243 235 242 232 228 230 222 217 217 218 229 245 254 263 282 303 323 320 300 241 214 210 196 187 178 173 162 159 165 173 169 161 164 161 165 170 167 172 173 177 176 176
185 206 222 198 203 205 220 243 223 222 234 235 230 229 231 237 233 243 253 260 266 281 309 336 350 352 238 199 182 179 180 177 177 164 157 166 174 172 166 166 163 162 169 170 169 175 178 183 189
203 222 227 217 199 209 226 249 224 227 239 241 237 233 236 240 244 256 250 257 264 266 292 13 35 48 68 136 136 161 159 159 173 159 154 165 173 170 166 166 162 162 164 175 173 177 182 187 191
212 223 232 230 206 224 236 249 245 241 241 246 242 234 232 236 248 260 248 243 241 238 183 125 103 80 109 127 126 142 132 127 133 138 145 151 166 168 165 157 158 162 164 172 180 176 174 186 194
224 227 241 250 260 242 246 258 256 250 246 246 244 237 232 234 242 253 245 221 193 164 128 111 125 114 122 134 157 174 168 159 127 115 139 142 156 162 162 161 157 164 170 177 178 173 172 171 175
221 231 248 258 258 261 264 268 265 249 243 244 244 242 237 232 232 234 230 205 208 198 174 171 162 129 125 137 179 204 187 173 141 109 102 126 158 151 154 167 159 168 173 174 173 163 172 167 183
228 235 242 252 275 251 274 262 244 241 233 236 243 244 238 230 230 233 231 218 201 218 227 211 185 148 129 129 135 120 121 122 143 136 131 106 165 166 151 154 163 165 166 184 187 185 185 186 191
237 234 235 241 244 246 241 269 246 234 240 238 235 233 238 232 226 231 231 235 224 235 231 214 180 145 150 148 136 146 158 164 223 258 104 122 134 149 164 161 181 174 174 184 198 199 202 198 201
222 184 217 232 242 254 234 250 257 218 240 237 231 229 234 238 228 225 239 249 255 242 226 212 179 156 153 151 148 155 153 141 130 131 65 354 142 112 128 154 182 180 184 185 198 206 211 211 213
162 150 163 210 230 246 236 231 258 228 231 234 225 219 212 209 198 176 70 18 319 277 219 208 175 163 165 162 161 158 152 145 120 103 129 239 212 152 102 176 208 200 194 194 202 208 218 223 223
188 189 212 219 225 245 204 229 253 257 242 231 218 208 192 167 143 106 63 36 6 310 195 202 176 175 181 176 169 167 166 157 151 174 230 242 243 354 317 244 231 242 214 204 201 202 218 228 227
200 213 225 241 245 258 215 233 251 306 260 215 196 187 165 143 120 96 67 33 360 356 180 195 190 192 191 188 185 174 168 169 176 201 224 245 253 326 331 298 268 286 246 211 210 201 220 238 236
196 215 247 252 274 266 242 246 264 209 208 197 186 177 176 156 142 123 79 31 12 13 70 185 193 196 199 196 189 181 173 169 173 185 210 221 283 320 293 310 287 271 277 249 221 223 220 229 241
242 186 189 208 228 248 251 245 241 200 205 201 199 199 193 176 171 150 83 6 1 9 26 138 180 192 198 187 176 164 173 175 179 193 196 180 335 333 272 278 291 280 268 261 232 227 230 227 235
189 196 212 214 242 244 254 247 219 214 208 206 210 205 201 199 202 209 244 303 20 74 75 134 169 177 194 196 182 175 181 135 106 138 244 283 320 277 280 277 290 282 277 272 248 238 234 236 238
234 221 209 220 225 237 256 261 93 220 218 218 219 212 208 212 213 211 227 242 205 165 163 192 206 201 217 216 192 184 186 173 182 280 303 297 292 293 287 281 276 276 268 268 256 248 242 241 243
Height
1507 1508 1510 1512 1511 1508 1506 1506 1507 1509 1511 1514 1514 1514 1512 1512 1514 1519 1520 1517 1518 1520 1520 1521 1522 1523 1524 1525 1525 1526 1527 1528 1529 1529 1529 1530 1530 1531 1531 1532 1532 1532 1532 1533 1533 1533 1534 1534 1534
1507 1509 1511 1512 1507 1507 1506 1505 1508 1509 1513 1515 1516 1515 1514 1515 1517 1517 1516 1517 1518 1520 1521 1521 1522 1523 1524 1525 1526 1526 1527 1528 1529 1529 1530 1530 1531 1531 1531 1532 1532 1533 1533 1534 1534 1534 1534 1535 1535
1507 1509 1512 1509 1505 1503 1503 1506 1508 1512 1514 1515 1515 1516 1516 1517 1517 1517 1516 1517 1518 1519 1520 1521 1522 1523 1524 1525 1526 1526 1527 1528 1529 1530 1530 1530 1531 1531 1532 1532 1533 1533 1534 1534 1534 1535 1535 1535 1535
1508 1510 1511 1507 1506 1505 1505 1508 1511 1512 1514 1515 1515 1515 1516 1517 1516 1516 1516 1517 1518 1519 1520 1521 1521 1522 1523 1524 1525 1526 1527 1528 1529 1530 1530 1530 1531 1531 1532 1532 1533 1533 1534 1534 1535 1535 1535 1536 1536
1508 1509 1507 1506 1505 1506 1509 1511 1512 1511 1512 1514 1515 1514 1516 1516 1515 1515 1516 1516 1517 1518 1519 1520 1521 1522 1523 1524 1525 1526 1526 1527 1528 1529 1530 1530 1530 1531 1532 1532 1533 1534 1534 1535 1535 1535 1536 1536 1537
1508 1506 1503 1502 1503 1506 1510 1512 1512 1511 1512 1514 1514 1514 1515 1515 1515 1515 1516 1516 1517 1517 1518 1519 1520 1521 1522 1523 1524 1525 1526 1526 1527 1528 1529 1530 1530 1531 1531 1532 1533 1533 1534 1535 1535 1536 1536 1537 1537
1507 1504 1500 1500 1503 1505 1509 1512 1512 1510 1511 1513 1514 1513 1514 1515 1514 1515 1515 1516 1516 1517 1518 1518 1519 1520 1521 1522 1523 1524 1525 1526 1526 1527 1528 1529 1530 1530 1531 1532 1532 1533 1534 1535 1535 1536 1536 1537 1537
1506 1505 1502 1501 1502 1504 1509 1511 1512 1512 1511 1513 1514 1513 1513 1514 1513 1514 1515 1516 1516 1516 1517 1517 1518 1519 1520 1521 1522 1522 1523 1524 1525 1526 1527 1528 1529 1530 1530 1531 1532 1532 1533 1534 1535 1535 1536 1536 1537
1505 1505 1500 1500 1502 1504 1509 1510 1512 1512 1512 1512 1512 1513 1512 1512 1513 1513 1514 1515 1515 1515 1516 1516 1517 1517 1518 1519 1520 1521 1522 1523 1524 1525 1526 1527 1528 1529 1529 1530 1531 1532 1533 1534 1534 1535 1535 1536 1536
1505 1501 1498 1502 1503 1505 1508 1509 1510 1511 1511 1511 1512 1511 1511 1512 1512 1513 1513 1513 1513 1514 1514 1515 1515 1516 1516 1517 1518 1520 1521 1521 1522 1524 1525 1526 1527 1527 1528 1529 1530 1531 1532 1533 1534 1534 1535 1535 1536
1503 1501 1502 1505 1506 1507 1508 1509 1510 1509 1508 1509 1510 1510 1510 1511 1511 1512 1512 1512 1512 1512 1513 1513 1513 1514 1514 1515 1516 1518 1519 1520 1520 1521 1522 1524 1525 1526 1526 1527 1529 1530 1531 1532 1532 1533 1534 1534 1535
1504 1505 1505 1506 1507 1508 1508 1509 1509 1509 1509 1509 1509 1509 1508 1509 1509 1510 1510 1510 1510 1510 1511 1511 1511 1512 1513 1513 1514 1515 1516 1517 1518 1519 1520 1521 1522 1524 1524 1526 1527 1528 1529 1530 1531 1532 1532 1533 1534
1503 1505 1506 1507 1507 1508 1508 1508 1508 1508 1508 1507 1507 1507 1507 1507 1508 1508 1508 1508 1508 1509 1509 1509 1509 1510 1511 1511 1512 1513 1514 1515 1516 1517 1518 1519 1520 1522 1522 1523 1525 1526 1527 1528 1529 1530 1531 1532 1532
1504 1505 1506 1507 1507 1507 1507 1507 1508 1506 1506 1506 1506 1506 1506 1506 1506 1506 1506 1506 1506 1507 1507 1507 1507 1508 1509 1509 1510 1511 1512 1513 1514 1515 1516 1517 1519 1520 1520 1521 1522 1524 1525 1526 1528 1529 1530 1530 1531
1505 1504 1504 1505 1506 1506 1507 1505 1504 1505 1505 1505 1505 1505 1504 1504 1504 1504 1504 1504 1505 1505 1505 1505 1505 1506 1507 1507 1508 1509 1510 1511 1511 1513 1514 1515 1516 1517 1518 1519 1520 1521 1523 1524 1526 1527 1528 1529 1529
1503 1501 1499 1502 1504 1505 1507 1498 1502 1503 1503 1503 1503 1503 1503 1503 1503 1502 1502 1502 1502 1503 1503 1503 1503 1504 1504 1505 1506 1507 1508 1508 1509 1510 1512 1513 1514 1515 1516 1517 1518 1519 1521 1522 1523 1525 1526 1527 1527
1499 1496 1496 1499 1502 1503 1502 1496 1500 1502 1502 1501 1501 1501 1501 1501 1501 1501 1500 1500 1500 1500 1500 1501 1501 1502 1502 1503 1504 1505 1506 1506 1507 1508 1509 1511 1512 1513 1514 1515 1516 1517 1518 1520 1521 1522 1524 1524 1525
1494 1493 1495 1496 1499 1501 1499 1496 1498 1500 1500 1499 1499 1499 1499 1499 1499 1499 1498 1498 1498 1498 1498 1499 1499 1500 1501 1501 1502 1502 1503 1504 1505 1506 1507 1509 1510 1511 1512 1513 1514 1515 1516 1517 1519 1520 1521 1522 1523
1495 1495 1495 1496 1500 1500 1496 1494 1495 1497 1497 1497 1497 1496 1497 1497 1497 1497 1497 1496 1496 1496 1496 1496 1497 1498 1498 1499 1500 1500 1501 1502 1502 1504 1505 1506 1507 1508 1510 1511 1512 1513 1514 1515 1516 1517 1519 1519 1520
1498 1497 1496 1498 1501 1499 1495 1493 1492 1493 1494 1494 1494 1494 1494 1495 1495 1495 1495 1494 1494 1493 1494 1494 1495 1496 1496 1497 1498 1498 1499 1499 1500 1501 1502 1503 1505 1506 1508 1509 1510 1511 1512 1513 1514 1515 1516 1516 1517
1497 1496 1495 1497 1500 1499 1497 1488 1487 1489 1491 1492 1492 1492 1492 1493 1492 1492 1492 1492 1492 1492 1492 1492 1493 1494 1494 1495 1496 1497 1497 1497 1498 1499 1500 1501 1502 1503 1505 1506 1507 1508 1509 1511 1511 1512 1513 1514 1515
1495 1497 1498 1499 1498 1492 1495 1484 1478 1483 1486 1488 1489 1489 1489 1490 1490 1490 1489 1489 1489 1490 1490 1490 1491 1492 1492 1493 1494 1494 1495 1495 1496 1497 1498 1499 1500 1501 1502 1503 1505 1506 1507 1508 1509 1510 1511 1512 1512
1496 1499 1499 1499 1498 1495 1492 1490 1474 1482 1481 1482 1485 1486 1487 1487 1488 1487 1487 1487 1487 1488 1488 1488 1489 1490 1490 1491 1492 1493 1493 1494 1495 1496 1496 1497 1498 1499 1500 1501 1502 1503 1504 1505 1506 1507 1508 1509 1509
1499 1500 1500 1499 1497 1493 1484 1485 1471 1474 1476 1478 1481 1484 1485 1485 1486 1485 1485 1485 1485 1486 1486 1486 1487 1488 1488 1489 1490 1491 1491 1492 1493 1494 1494 1495 1496 1496 1497 1498 1499 1500 1501 1502 1503 1504 1505 1505 1506
1498 1496 1494 1492 1490 1480 1484 1483 1472 1472 1476 1477 1479 1481 1483 1484 1484 1484 1484 1483 1484 1484 1484 1484 1485 1486 1486 1487 1488 1488 1489 1490 1490 1491 1492 1493 1494 1494 1495 1496 1496 1497 1498 1499 1500 1500 1501 1502 1502
1493 1491 1487 1483 1477 1473 1486 1478 1469 1476 1477 1478 1479 1480 1481 1482 1483 1483 1483 1483 1482 1482 1482 1482 1483 1484 1485 1485 1486 1486 1487 1488 1488 1489 1490 1491 1491 1491 1492 1493 1494 1494 1495 1496 1496 1497 1498 1498 1498
1491 1490 1489 1488 1489 1483 1471 1472 1472 1475 1476 1478 1478 1479 1480 1481 1481 1482 1482 1482 1481 1481 1481 1481 1482 1482 1483 1483 1484 1484 1485 1486 1486 1487 1488 1488 1488 1488 1490 1491 1491 1491 1492 1492 1493 1493 1494 1494 1494
1492 1490 1492 1488 1483 1474 1465 1466 1462 1469 1471 1474 1476 1477 1479 1480 1480 1480 1481 1481 1480 1480 1480 1480 1480 1480 1481 1481 1481 1482 1483 1483 1484 1484 1485 1485 1485 1486 1487 1488 1488 1488 1489 1489 1489 1490 1490 1490 1490
1492 1493 1490 1486 1482 1473 1465 1460 1463 1466 1469 1471 1473 1475 1476 1478 1478 1478 1479 1479 1479 1479 1479 1479 1479 1479 1479 1479 1479 1480 1480 1481 1481 1482 1482 1483 1483 1483 1484 1484 1484 1485 1485 1485 1485 1486 1486 1486 1486
1490 1487 1487 1484 1483 1480 1469 1464 1467 1468 1469 1471 1472 1474 1475 1476 1477 1477 1477 1477 1477 1477 1477 1477 1477 1477 1477 1477 1477 1478 1478 1478 1479 1479 1479 1480 1480 1480 1481 1481 1480 1481 1481 1481 1481 1482 1482 1482 1482